Simultaneous Nadir Overpasses (SNOs) Predictions

Prediction of SNOs between AQUA and METOP-B Satellite Orbit:

Table of predicted SNOs for the next 14.0 days since TLE Epoch: 12/30/2016
Index Date (AQUA) Time (AQUA) Lat,Lon (AQUA) SZA (AQUA ) Date (METOP-B) Time (METOP-B) Lat,Lon (METOP-B) SZA (METOP-B ) Distance(km) Time Diff (sec)
1 01/01/2017 01:29:59 -73.70, -28.12 83.30 01/01/2017 01:29:27 -73.68, -28.09 83.32 2.43 32
2 01/01/2017 02:19:27 73.74, 139.45 96.74 01/01/2017 02:20:05 73.75, 139.40 96.75 2.00 38
3 01/03/2017 21:04:14 -73.68, 38.37 83.58 01/03/2017 21:03:48 -73.68, 38.31 83.58 2.22 26
4 01/03/2017 21:53:42 73.77,-154.18 96.51 01/03/2017 21:54:25 73.74,-154.20 96.48 3.06 43
5 01/06/2017 16:38:29 -73.72, 104.74 83.85 01/06/2017 16:38:07 -73.71, 104.81 83.86 2.39 22
6 01/06/2017 17:27:57 73.75, -87.71 96.19 01/06/2017 17:28:45 73.78, -87.70 96.21 2.77 48
7 01/09/2017 11:23:06 73.07, 4.89 95.10 01/09/2017 11:21:59 73.03, 2.37 95.16 81.66 67
8 01/09/2017 12:12:44 -73.71, 171.19 84.23 01/09/2017 12:12:28 -73.70, 171.19 84.24 1.20 16
9 01/09/2017 13:02:12 73.75, -21.25 95.81 01/09/2017 13:03:06 73.76, -21.32 95.82 2.91 54
10 01/12/2017 06:57:25 73.28, 70.90 94.89 01/12/2017 06:56:16 73.22, 69.19 94.90 55.42 69
11 01/12/2017 07:46:59 -73.71,-122.36 84.66 01/12/2017 07:46:48 -73.73,-122.32 84.64 2.77 11
12 01/12/2017 08:36:28 73.80, 45.08 95.43 01/12/2017 08:37:26 73.79, 45.17 95.42 2.88 58




NCC Satellite Simultaneous Nadir Overpasses (SNOs) Prediction Service
